TimeAWST,TemperatureF,Dew PointF,Humidity,Sea Level PressureIn,VisibilityMPH,Wind Direction,Wind SpeedMPH,Gust SpeedMPH,PrecipitationIn,Events,Conditions,WindDirDegrees,DateUTC
12:00 AM,91,49,15,29.73,,WSW,4.6,,,,,240,2012-11-15 16:00:00
12:00 AM,91.4,50.0,24,29.77,-9999.0,WSW,4.6,-,N/A,,Unknown,240,2012-11-15 16:00:00
1:00 AM,89.6,55.4,31,29.77,-9999.0,West,12.7,-,N/A,,Unknown,260,2012-11-15 17:00:00
2:00 AM,88,57,24,29.70,,West,8.1,,,,,260,2012-11-15 18:00:00
2:00 AM,87.8,57.2,35,29.77,-9999.0,West,8.1,-,N/A,,Unknown,260,2012-11-15 18:00:00
3:00 AM,85,58,30,29.72,,West,6.9,,,,,280,2012-11-15 19:00:00
3:00 AM,86.0,59.0,40,29.77,-9999.0,West,6.9,-,N/A,,Unknown,280,2012-11-15 19:00:00
4:00 AM,84.2,59.0,42,29.77,-9999.0,West,5.8,-,N/A,,Unknown,280,2012-11-15 20:00:00
5:00 AM,82,60,37,29.74,,NNW,6.9,,,,,330,2012-11-15 21:00:00
5:00 AM,82.4,60.8,48,29.80,-9999.0,NNW,6.9,-,N/A,,Unknown,330,2012-11-15 21:00:00
6:00 AM,83,62,38,29.78,,North,8.1,,,,,0,2012-11-15 22:00:00
6:00 AM,84.2,60.8,45,29.83,-9999.0,North,8.1,-,N/A,,Unknown,350,2012-11-15 22:00:00
7:00 AM,84.2,64.4,51,29.86,-9999.0,North,10.4,-,N/A,,Unknown,350,2012-11-15 23:00:00
8:00 AM,88,63,33,29.80,,NNW,10.4,,,,,340,2012-11-16 00:00:00
8:00 AM,87.8,62.6,43,29.86,-9999.0,NNW,10.4,-,N/A,,Unknown,340,2012-11-16 00:00:00
9:00 AM,92,64,29,29.79,,NNW,10.4,,,,,330,2012-11-16 01:00:00
9:00 AM,91.4,64.4,41,29.83,-9999.0,NNW,10.4,-,N/A,,Unknown,330,2012-11-16 01:00:00
10:00 AM,95.0,62.6,34,29.83,-9999.0,North,10.4,-,N/A,,Unknown,350,2012-11-16 02:00:00
11:00 AM,99,62,20,29.74,,NW,8.1,,,,,320,2012-11-16 03:00:00
11:00 AM,98.6,60.8,29,29.80,-9999.0,NW,8.1,-,N/A,,Unknown,320,2012-11-16 03:00:00
12:00 PM,104,57,14,29.72,,NW,8.1,,,,,320,2012-11-16 04:00:00
12:00 PM,104.0,57.2,21,29.77,-9999.0,NW,8.1,-,N/A,,Unknown,310,2012-11-16 04:00:00
1:00 PM,105.8,51.8,17,29.74,-9999.0,North,8.1,-,N/A,,Unknown,10,2012-11-16 05:00:00
2:00 PM,108,50,8,29.66,,North,4.6,,,,,0,2012-11-16 06:00:00
2:00 PM,107.6,50.0,15,29.71,-9999.0,North,4.6,-,N/A,,Unknown,360,2012-11-16 06:00:00
3:00 PM,108,45,6,29.63,,SSE,5.8,,,,,150,2012-11-16 07:00:00
3:00 PM,107.6,44.6,12,29.68,-9999.0,SSE,5.8,-,N/A,,Unknown,150,2012-11-16 07:00:00
4:00 PM,107.6,44.6,12,29.68,-9999.0,East,4.6,-,N/A,,Unknown,100,2012-11-16 08:00:00
5:00 PM,106,45,7,29.61,,West,5.8,,,,,270,2012-11-16 09:00:00
5:00 PM,105.8,44.6,13,29.68,-9999.0,West,5.8,-,N/A,,Unknown,270,2012-11-16 09:00:00
6:00 PM,104,47,8,29.64,,SSE,6.9,,,,,160,2012-11-16 10:00:00
6:00 PM,104.0,46.4,14,29.68,-9999.0,SSE,6.9,-,N/A,,Unknown,160,2012-11-16 10:00:00
6:08 PM,100.4,50.0,18,29.71,-9999.0,South,20.7,-,N/A,,Unknown,180,2012-11-16 10:08:00
6:11 PM,98.6,51.8,21,29.71,-9999.0,South,21.9,33.4,N/A,,Unknown,180,2012-11-16 10:11:00
6:33 PM,91.4,57.2,31,29.74,-9999.0,SW,24.2,71.3,N/A,,Unknown,220,2012-11-16 10:33:00
6:34 PM,91.4,53.6,28,29.74,-9999.0,WSW,28.8,71.3,N/A,,Unknown,250,2012-11-16 10:34:00
7:00 PM,95.0,57.2,28,29.77,-9999.0,South,9.2,24.2,N/A,,Unknown,180,2012-11-16 11:00:00
8:00 PM,94,53,16,29.70,,NNE,12.7,,,,,30,2012-11-16 12:00:00
8:00 PM,95.0,53.6,25,29.74,-9999.0,NNE,12.7,-,N/A,,Unknown,30,2012-11-16 12:00:00
9:00 PM,88,60,29,29.73,,NW,10.4,,,,,320,2012-11-16 13:00:00
9:00 PM,87.8,60.8,40,29.77,-9999.0,NW,10.4,-,N/A,,Unknown,320,2012-11-16 13:00:00
10:00 PM,86.0,60.8,43,29.80,-9999.0,North,9.2,-,N/A,,Unknown,350,2012-11-16 14:00:00
11:00 PM,86,59,30,29.74,,NNW,1.2,,,,,340,2012-11-16 15:00:00
11:00 PM,86.0,59.0,40,29.80,-9999.0,NNW,1.2,-,N/A,,Unknown,340,2012-11-16 15:00:00